KAR3547 UUEE-VVCR

Flight info

Callsign KAR3547
Flight time N/A
Altitude 33000
Route TOGMO M56 DENUD M161 MILSO M875 TAPIS L509 LAJAK G796 HANGU L509 SULOM A466 ASARI L509 GGC R460 CEA L507 BGO G473 UBL B202 PLK G474 PCA W2 KAMGO
Aircraft B772/H-SDE1E2E3FGHIJ2J3J4J5M1RWXYZ/LB1D1

Departure

Time N/A
Airport Sheremetyevo International Airport (UUEE)

Arrival

Time 2026-04-16 04:17
Airport Cam Ranh International Airport / Cam Ranh Air Base (VVCR)
Time Latitude Longitude Altitude Speed Heading
2026-04-16 03:30 15.02424 106.07277 34927 ft 491 kts 119°
2026-04-16 03:31 15.00815 106.10398 34927 ft 491 kts 119°
2026-04-16 03:31 14.97598 106.16632 34932 ft 491 kts 119°
2026-04-16 03:32 14.94374 106.22868 34939 ft 491 kts 119°
2026-04-16 03:34 14.81515 106.47690 34940 ft 489 kts 119°
2026-04-16 03:34 14.78292 106.53899 34937 ft 489 kts 119°
2026-04-16 03:35 14.75092 106.60059 34938 ft 489 kts 119°
2026-04-16 03:35 14.71877 106.66243 34936 ft 488 kts 119°
2026-04-16 03:36 14.68660 106.72426 34936 ft 487 kts 119°
2026-04-16 03:36 14.65449 106.78594 34939 ft 487 kts 119°
2026-04-16 03:37 14.62232 106.84765 34941 ft 487 kts 119°
2026-04-16 03:37 14.59042 106.90883 34944 ft 486 kts 119°
2026-04-16 03:38 14.55832 106.97032 34943 ft 486 kts 119°
2026-04-16 03:38 14.52626 107.03170 34946 ft 486 kts 119°
2026-04-16 03:39 14.49419 107.09304 34948 ft 486 kts 119°
2026-04-16 03:39 14.46209 107.15442 34953 ft 486 kts 119°
2026-04-16 03:40 14.42997 107.21575 34944 ft 486 kts 119°
2026-04-16 03:40 14.39782 107.27707 34953 ft 485 kts 119°
2026-04-16 03:41 14.36570 107.33831 34954 ft 486 kts 119°
2026-04-16 03:41 14.33369 107.39929 34956 ft 486 kts 119°
2026-04-16 03:42 14.30157 107.46065 34951 ft 486 kts 119°
2026-04-16 03:42 14.26951 107.52202 34947 ft 486 kts 119°
2026-04-16 03:43 14.23744 107.58334 34955 ft 486 kts 119°
2026-04-16 03:43 14.20534 107.64468 34953 ft 486 kts 119°
2026-04-16 03:44 14.17322 107.70599 34952 ft 486 kts 119°
2026-04-16 03:44 14.14128 107.76689 34953 ft 486 kts 119°
2026-04-16 03:45 14.10914 107.82818 34951 ft 485 kts 119°
2026-04-16 03:45 14.07705 107.88930 34951 ft 485 kts 119°
2026-04-16 03:46 14.04496 107.95036 34959 ft 485 kts 119°
2026-04-16 03:46 14.01612 108.01296 34953 ft 485 kts 108°
2026-04-16 03:47 14.00218 108.08088 34953 ft 486 kts 94°
2026-04-16 03:47 13.99992 108.15040 34954 ft 487 kts 91°
2026-04-16 03:48 13.99716 108.22013 34950 ft 487 kts 92°
2026-04-16 03:48 13.99379 108.28981 34944 ft 487 kts 93°
2026-04-16 03:49 13.99041 108.35909 34939 ft 487 kts 92°
2026-04-16 03:49 13.98709 108.42870 34936 ft 486 kts 93°
2026-04-16 03:50 13.98379 108.49820 34938 ft 486 kts 93°
2026-04-16 03:50 13.98047 108.56763 34926 ft 486 kts 93°
2026-04-16 03:51 13.97713 108.63715 34925 ft 485 kts 93°
2026-04-16 03:51 13.97377 108.70653 34919 ft 485 kts 93°
2026-04-16 03:52 13.97042 108.77542 34911 ft 482 kts 93°
2026-04-16 03:52 13.96875 108.80957 34891 ft 470 kts 93°
2026-04-16 03:52 13.96711 108.84302 34556 ft 464 kts 93°
2026-04-16 03:52 13.96548 108.87608 34147 ft 460 kts 93°
2026-04-16 03:53 13.96387 108.90889 33699 ft 456 kts 93°
2026-04-16 03:53 13.96226 108.94137 33243 ft 452 kts 93°
2026-04-16 03:53 13.95803 108.97301 32787 ft 443 kts 108°
2026-04-16 03:53 13.94517 109.00098 32385 ft 436 kts 126°
2026-04-16 03:54 13.92506 109.02384 31971 ft 429 kts 142°
2026-04-16 03:54 13.90017 109.04044 31555 ft 422 kts 155°
2026-04-16 03:54 13.87288 109.05085 31131 ft 416 kts 171°
2026-04-16 03:54 13.84459 109.05402 30729 ft 406 kts 177°
2026-04-16 03:55 13.82590 109.05542 30455 ft 405 kts 177°
2026-04-16 03:55 13.79782 109.05746 30031 ft 403 kts 177°
2026-04-16 03:55 13.76988 109.05956 29564 ft 401 kts 177°
2026-04-16 03:55 13.74211 109.06176 29099 ft 399 kts 176°
2026-04-16 03:56 13.71449 109.06404 28646 ft 397 kts 176°
2026-04-16 03:56 13.68707 109.06639 28208 ft 394 kts 176°
2026-04-16 03:56 13.65979 109.06876 27782 ft 392 kts 176°
2026-04-16 03:56 13.63269 109.07112 27378 ft 389 kts 176°
2026-04-16 03:57 13.60580 109.07349 26967 ft 387 kts 176°
2026-04-16 03:57 13.57906 109.07584 26547 ft 384 kts 176°
2026-04-16 03:57 13.55248 109.07818 26143 ft 382 kts 176°
2026-04-16 03:57 13.52635 109.08046 25749 ft 380 kts 175°
2026-04-16 03:58 13.50008 109.08276 25358 ft 378 kts 175°
2026-04-16 03:58 13.47392 109.08506 24949 ft 377 kts 175°
2026-04-16 03:58 13.44782 109.08734 24557 ft 375 kts 175°
2026-04-16 03:58 13.42186 109.08962 24164 ft 374 kts 175°
2026-04-16 03:59 13.39594 109.09189 23772 ft 372 kts 175°
2026-04-16 03:59 13.37012 109.09416 23363 ft 371 kts 175°
2026-04-16 03:59 13.34446 109.09641 22929 ft 369 kts 175°
2026-04-16 03:59 13.31899 109.09864 22525 ft 366 kts 175°
2026-04-16 04:00 13.29366 109.10085 22142 ft 363 kts 174°
2026-04-16 04:00 13.26888 109.10517 21772 ft 359 kts 166°
2026-04-16 04:00 13.24525 109.11201 21412 ft 357 kts 162°
2026-04-16 04:00 13.22167 109.11978 21044 ft 354 kts 162°
2026-04-16 04:01 13.19828 109.12760 20671 ft 352 kts 162°
2026-04-16 04:01 13.17499 109.13527 20304 ft 350 kts 162°
2026-04-16 04:01 13.15175 109.14273 19941 ft 349 kts 162°
2026-04-16 04:01 13.12861 109.15003 19567 ft 348 kts 163°
2026-04-16 04:02 13.10551 109.15725 19195 ft 347 kts 163°
2026-04-16 04:02 13.08240 109.16440 18822 ft 346 kts 163°
2026-04-16 04:02 13.05936 109.17149 18447 ft 346 kts 163°
2026-04-16 04:02 13.03630 109.17859 18042 ft 346 kts 163°
2026-04-16 04:03 13.01331 109.18567 17623 ft 345 kts 163°
2026-04-16 04:03 12.99067 109.19261 17242 ft 342 kts 163°
2026-04-16 04:03 12.96783 109.19961 16864 ft 340 kts 163°
2026-04-16 04:03 12.94523 109.20654 16473 ft 338 kts 162°
2026-04-16 04:04 12.92276 109.21342 16116 ft 336 kts 162°
2026-04-16 04:04 12.90038 109.22029 15729 ft 335 kts 162°
2026-04-16 04:04 12.87814 109.22713 15370 ft 333 kts 162°
2026-04-16 04:04 12.85590 109.23396 15004 ft 332 kts 162°
2026-04-16 04:05 12.83376 109.24074 14627 ft 331 kts 162°
2026-04-16 04:05 12.81198 109.24743 14249 ft 330 kts 162°
2026-04-16 04:05 12.79001 109.25416 13882 ft 329 kts 162°
2026-04-16 04:05 12.76804 109.26090 13477 ft 329 kts 162°
2026-04-16 04:06 12.74613 109.26762 13094 ft 328 kts 162°
2026-04-16 04:06 12.72428 109.27431 12713 ft 327 kts 162°
2026-04-16 04:06 12.70251 109.28097 12327 ft 325 kts 162°
2026-04-16 04:06 12.68093 109.28757 11998 ft 322 kts 162°
2026-04-16 04:07 12.65952 109.29324 11678 ft 318 kts 169°
2026-04-16 04:07 12.61546 109.29773 10837 ft 319 kts 174°
2026-04-16 04:07 12.59339 109.29936 10464 ft 317 kts 174°
2026-04-16 04:08 12.57138 109.30111 10084 ft 316 kts 174°
2026-04-16 04:08 12.54968 109.30298 9893 ft 308 kts 174°
2026-04-16 04:08 12.52868 109.30489 9801 ft 297 kts 174°
2026-04-16 04:08 12.50837 109.30678 9626 ft 290 kts 174°
2026-04-16 04:09 12.48841 109.30868 9380 ft 286 kts 174°
2026-04-16 04:09 12.46864 109.31058 9081 ft 284 kts 174°
2026-04-16 04:09 12.44927 109.31247 8777 ft 283 kts 174°
2026-04-16 04:09 12.42969 109.31437 8458 ft 282 kts 174°
2026-04-16 04:10 12.41011 109.31628 8147 ft 282 kts 174°
2026-04-16 04:10 12.39057 109.31817 7836 ft 281 kts 174°
2026-04-16 04:10 12.37117 109.32003 7580 ft 279 kts 174°
2026-04-16 04:10 12.35180 109.32192 7265 ft 279 kts 174°
2026-04-16 04:11 12.33540 109.32253 6962 ft 276 kts 185°
2026-04-16 04:11 12.31633 109.31947 6598 ft 278 kts 192°
2026-04-16 04:11 12.29746 109.31558 6389 ft 274 kts 192°
2026-04-16 04:11 12.27871 109.31191 6087 ft 274 kts 191°
2026-04-16 04:12 12.25998 109.30845 5794 ft 273 kts 191°
2026-04-16 04:12 12.24179 109.30477 5685 ft 264 kts 195°
2026-04-16 04:13 12.18128 109.28595 4861 ft 203 kts 199°
2026-04-16 04:13 12.16795 109.28136 4469 ft 202 kts 200°
2026-04-16 04:13 12.15479 109.27670 4204 ft 198 kts 200°
2026-04-16 04:14 12.14182 109.27215 3945 ft 195 kts 200°
2026-04-16 04:14 12.12904 109.26767 3666 ft 193 kts 200°
2026-04-16 04:14 12.11641 109.26327 3451 ft 187 kts 200°
2026-04-16 04:14 12.10432 109.25905 3262 ft 181 kts 200°
2026-04-16 04:15 12.09281 109.25506 3134 ft 172 kts 200°
2026-04-16 04:15 12.08134 109.25108 3106 ft 177 kts 199°
2026-04-16 04:15 12.06956 109.24708 3073 ft 179 kts 199°
2026-04-16 04:15 12.05717 109.24240 2378 ft 205 kts 202°
2026-04-16 04:16 12.04319 109.23651 1664 ft 222 kts 199°
2026-04-16 04:16 12.02922 109.23054 1005 ft 214 kts 202°
2026-04-16 04:16 12.01505 109.22519 165 ft 209 kts 195°
2026-04-16 04:16 12.00233 109.22080 55 ft 175 kts 193°
2026-04-16 04:17 11.99329 109.21765 50 ft 90 kts 200°
2026-04-16 04:17 11.99069 109.21645 55 ft 0 kts 235°
2026-04-16 04:17 11.99005 109.21555 52 ft 32 kts 229°
2026-04-16 04:17 11.98965 109.21428 49 ft 10 kts 320°
2026-04-16 04:18 11.99034 109.21432 52 ft 10 kts 17°
2026-04-16 04:18 11.99102 109.21455 49 ft 10 kts 18°
2026-04-16 04:18 11.99169 109.21479 52 ft 10 kts 19°
2026-04-16 04:18 11.99237 109.21502 53 ft 10 kts 19°
2026-04-16 04:19 11.99305 109.21527 54 ft 10 kts 19°
2026-04-16 04:19 11.99372 109.21551 51 ft 10 kts 19°
2026-04-16 04:19 11.99439 109.21574 51 ft 10 kts 19°
2026-04-16 04:19 11.99506 109.21599 52 ft 10 kts 19°
2026-04-16 04:20 11.99575 109.21618 56 ft 10 kts 15°
2026-04-16 04:20 11.99643 109.21640 52 ft 10 kts 20°
2026-04-16 04:20 11.99806 109.21699 54 ft 37 kts 19°
2026-04-16 04:20 12.00043 109.21781 54 ft 35 kts 19°
2026-04-16 04:21 12.00270 109.21860 54 ft 34 kts 18°
2026-04-16 04:21 12.00493 109.21936 54 ft 34 kts 19°
2026-04-16 04:21 12.00713 109.22011 53 ft 33 kts 20°
2026-04-16 04:21 12.00922 109.22086 52 ft 32 kts 18°
2026-04-16 04:22 12.01115 109.22153 53 ft 21 kts 15°
2026-04-16 04:22 12.01211 109.22059 57 ft 22 kts 286°
2026-04-16 04:22 12.01181 109.21931 53 ft 22 kts 201°
2026-04-16 04:22 12.01087 109.21895 50 ft 10 kts 200°
2026-04-16 04:23 12.01065 109.21838 53 ft 10 kts 290°
2026-04-16 04:23 12.01080 109.21794 53 ft 0 kts 288°
2026-04-16 04:23 12.01081 109.21791 53 ft 1 kts 288°